Tracking 28081 objects as of 27-Sep-2023
HD Live streaming from Space Station
objects crossing your sky now

ISS DEB (SPX-26 IPA FSE)

Track ISS DEB (SPX-26 IPA FSE) now!
10-day predictions
ISS DEB (SPX-26 IPA FSE) is classified as:


NORAD ID: 55448
Int'l Code: 1998-067VB
Perigee: 353.1 km
Apogee: 363.2 km
Inclination: 51.6 °
Period: 91.6 minutes
Semi major axis: 6729 km
RCS: Unknown
Launch date: November 20, 1998
Source: United States (US)
Launch site: TYURATAM MISSILE AND SPACE COMPLEX (TTMTR)

Note: This is SATELLITE DEBRIS
Your satellite tracking list
Your tracking list is empty




NASA's NSSDC Master Catalog

Two Line Element Set (TLE):
1 55448U 98067VB  23269.93550847  .00118572  00000-0  85049-3 0  9992
2 55448  51.6326 165.8263 0007522 138.3296 221.8276 15.72763320 37206
Source of the keplerian elements: AFSPC